Flag Weather past 2 weeks in Münster, North Rhine-Westphalia, Germany

Now
36 °F

Clear.


Feels Like: 29 °F
Forecast: 32 / 41 °F
Wind: 9 mph from East

Location: Muenster / Osnabrueck

Current Time: Nov 28, 2014 at 9:53:56 PM

Latest Report: Nov 28, 2014 at 9:20 PM


Visibility: 10 mi

Pressure: 29.95 "Hg

Humidity: 87%

Dew point: 32 °F

Location of MünsterLocation

Historic Weather in Münster — Graph

°F

Münster temperature yesterday

Maximum temperature yesterday: 43 °F (at 12:20 PM)
Minimum temperature yesterday: 39 °F (at 12:20 AM)
Average temperature yesterday: 41 °F

Past Weeks' High & Low Weather Summary

 TemperatureHumidityPressure
High57 °F (Nov 23, 12:20 PM)100% (Nov 13, 8:20 PM)30.36 "Hg (Nov 13, 8:20 PM)
Low30 °F (Nov 25, 7:20 AM)71% (Nov 21, 12:50 PM)29.47 "Hg (Nov 16, 12:50 PM)
Average45 °F89%29.96 "Hg
* Reported Nov 13 8:20 PM — Nov 28 8:50 PM, Münster, Weather by CustomWeather, © 2014

Note: Actual official high and low records may vary slightly from our data, if they occured in-between our weather recording intervals... More about our weather records

Advertising

Münster weather history for previous 24 hours

 ConditionsComfort  
Time TempWeatherWind HumidityBarometerVisibility
8:50 PM
Nov 28
36 °FClear.10 mph87%29.95 "Hg10 mi
8:20 PM36 °FClear.9 mph87%29.95 "Hg10 mi
7:50 PM36 °FClear.12 mph87%29.95 "Hg10 mi
7:20 PM36 °FClear.10 mph87%29.95 "Hg10 mi
6:50 PM37 °FClear.13 mph81%29.92 "Hg10 mi
6:20 PM37 °FClear.12 mph87%29.92 "Hg10 mi
5:50 PM37 °FClear.13 mph87%29.92 "Hg10 mi
5:20 PM39 °FClear.13 mph81%29.92 "Hg10 mi
4:50 PM39 °FClear.14 mph81%29.89 "Hg10 mi
4:20 PM41 °FSunny.16 mph76%29.89 "Hg10 mi
3:50 PM43 °FSunny.14 mph76%29.89 "Hg10 mi
3:20 PM43 °FSunny.14 mph76%29.89 "Hg10 mi
2:50 PM43 °FSunny.14 mph76%29.86 "Hg10 mi
2:20 PM43 °FSunny.13 mph76%29.86 "Hg10 mi
1:50 PM43 °FSunny.15 mph76%29.86 "Hg10 mi
1:20 PM43 °FSunny.13 mph76%29.86 "Hg10 mi
12:50 PM43 °FSunny.12 mph76%29.89 "Hg10 mi
12:20 PM43 °FSunny.12 mph76%29.86 "Hg10 mi
11:50 AM43 °FSunny.13 mph81%29.86 "Hg10 mi
11:20 AM41 °FSunny.10 mph81%29.89 "Hg10 mi
10:50 AM41 °FSunny.12 mph81%29.86 "Hg10 mi
10:20 AM41 °FClear.10 mph81%29.86 "Hg6 mi
9:50 AM41 °FClear.12 mph81%29.86 "Hg6 mi
9:20 AM39 °FClear.12 mph87%29.86 "Hg6 mi
8:50 AM39 °FClear.12 mph87%29.86 "Hg6 mi
8:20 AM39 °FClear.9 mph87%29.86 "Hg6 mi
7:50 AM39 °FClear.9 mph87%29.83 "Hg6 mi
7:20 AM39 °FClear.10 mph87%29.83 "Hg6 mi
6:50 AM39 °FClear.10 mph87%29.83 "Hg6 mi
6:20 AM39 °FClear.9 mph87%29.83 "Hg6 mi
5:50 AM37 °FClear.8 mph93%29.80 "Hg6 mi
5:20 AM39 °FClear.12 mph87%29.80 "Hg6 mi
4:20 AM39 °FClear.7 mph87%29.80 "Hg6 mi
3:50 AM39 °FClear.8 mph87%29.80 "Hg5 mi
3:20 AM39 °FPassing clouds.7 mph87%29.80 "Hg5 mi
2:50 AM39 °FClear.8 mph87%29.80 "Hg5 mi
2:20 AM41 °FClear.6 mph87%29.80 "Hg5 mi
1:50 AM41 °FClear.9 mph87%29.80 "Hg5 mi
1:20 AM41 °FClear.9 mph87%29.80 "Hg5 mi
12:50 AM41 °FPassing clouds.10 mph87%29.80 "Hg5 mi
12:20 AM41 °FPassing clouds.8 mph87%29.80 "Hg5 mi
11:50 PM
Nov 27
41 °FPartly cloudy.9 mph87%29.80 "Hg5 mi
11:20 PM41 °FClear.9 mph87%29.80 "Hg6 mi
10:50 PM41 °FClear.9 mph87%29.80 "Hg6 mi
10:20 PM41 °FLight rain. Clear.9 mph87%29.80 "HgN/A
9:50 PM41 °FLight rain. Clear.8 mph87%29.80 "HgN/A
9:20 PM41 °FLight rain. Clear.8 mph87%29.80 "HgN/A
Weather by CustomWeather, © 2014

See weather overviewHow to use our weather pages